Flag for Germany Weather past 2 weeks in Emmendingen, Baden-Württemberg, Germany

Now
46 °F

Partly sunny.


Feels Like: 44 °F
Forecast: 32 / 63 °F
Wind: 6 mph from Northwest

Location: Lahr - CAN-AFB

Current Time: Apr 28, 2015 at 9:24:02 AM

Latest Report: Apr 28, 2015 at 8:50 AM


Visibility: N/A

Pressure: 29.98 "Hg

Humidity: 82%

Dew point: 41 °F

Location of EmmendingenLocation

Historic Weather in Emmendingen — Graph

°F

Emmendingen temperature yesterday

Maximum temperature yesterday: 66 °F (at 1:20 PM)
Minimum temperature yesterday: 55 °F (at 7:50 AM)
Average temperature yesterday: 61 °F

Past Weeks' High & Low Weather Summary

 TemperatureHumidityPressure
High79 °F (Apr 15, 3:20 PM)100% (Apr 17, 4:50 PM)30.48 "Hg (Apr 17, 4:50 PM)
Low41 °F (Apr 20, 7:50 AM)14% (Apr 15, 6:20 PM)29.53 "Hg (Apr 27, 3:20 PM)
Average62 °F48%30.11 "Hg
* Reported Apr 13 7:50 AM — Apr 28 7:50 AM, Emmendingen, Weather by CustomWeather, © 2015

Note: Actual official high and low records may vary slightly from our data, if they occured in-between our weather recording intervals... More about our weather records

Advertising

Emmendingen weather history for previous 24 hours

 ConditionsComfort  
Time TempWeatherWind HumidityBarometerVisibility
7:50 AM
Tue, Apr 28
45 °FLow clouds.7 mph87%29.95 "HgN/A
7:50 PM
Mon, Apr 27
55 °FLight rain. Broken clouds.15 mph88%29.59 "Hg5 mi
7:20 PM57 °FLight rain. Scattered clouds.14 mph88%29.59 "Hg4 mi
6:50 PM57 °FLight rain. Broken clouds.12 mph94%29.56 "Hg4 mi
6:20 PM57 °FLight rain. Partly sunny.9 mph88%29.56 "HgN/A
5:50 PM61 °FLight rain. Broken clouds.16 mph72%29.56 "HgN/A
5:20 PM63 °FBroken clouds.17 mph68%29.53 "HgN/A
4:50 PM64 °FPartly sunny.17 mph68%29.53 "HgN/A
4:20 PM66 °FScattered clouds.17 mph60%29.53 "HgN/A
3:50 PM66 °FScattered clouds.13 mph64%29.53 "HgN/A
3:20 PM66 °FScattered clouds.13 mph64%29.53 "HgN/A
2:50 PM64 °FPartly sunny.14 mph64%29.56 "HgN/A
2:20 PM64 °FPartly sunny.13 mph64%29.56 "HgN/A
1:50 PM64 °FPartly sunny.9 mph68%29.56 "HgN/A
1:20 PM66 °FPartly sunny.7 mph68%29.56 "HgN/A
12:50 PM63 °FPartly sunny.7 mph77%29.59 "HgN/A
12:20 PM61 °FScattered clouds.6 mph77%29.59 "HgN/A
11:50 AM61 °FPartly sunny.5 mph77%N/AN/A
11:20 AM61 °FPartly sunny.3 mph77%29.59 "HgN/A
10:50 AM59 °FPartly sunny.5 mph82%29.62 "HgN/A
10:20 AM59 °FPartly sunny.6 mph77%29.62 "HgN/A
9:50 AM59 °FPartly sunny.3 mph88%29.59 "HgN/A
9:20 AM59 °FBroken clouds.3 mph82%29.59 "HgN/A
Weather by CustomWeather, © 2015

See weather overviewHow to use our weather pages